www.pogodaiklimat.ru

Погода и климат >> Архив погоды >> Корея >> Тхонъён


ПОГОДА в Тхонъёне

  • Прогноз погоды в Тхонъёне
  • Монитор погоды в Тхонъёне

АРХИВ ПОГОДЫ в Тхонъёне

Время (UTC), дата Ветер
(напр.,м/с)
 
Видим.   Явления Облачность Т
(С)
Тd
(С)
f
(%)
Тe
(С)
Тes
(С)
Комфортность P
(гПа)
Po
(гПа)
Тmin
(С)
Tmax
(С)
R
(мм)
R24
(мм)
S
(см)
21 8.09 11 км н/о +24.1 +23.4 96 +32 +32 очень
душно
1009.7 1006.0
00 9.09 С 7 15 км 5/0
[]
+27.3 +24.3 84 +38 +40 очень
душно
1010.5 1006.8 +23.6 0.0
03 9.09 Ю 2 16 км 8/1 1000 м
[]
+30.0 +23.6 69 +41 +50 опасность
перегрева
1010.1 1006.5
06 9.09 ЮВ 3 20 км 8/8 1000 м
[]
+30.5 +23.6 67 +42 +43 опасность
перегрева
1008.8 1005.2
09 9.09 ЮВ 2 12 км 9/5
[]
+26.5 +25.0 91 +38 +38 очень
душно
1009.9 1006.2
12 9.09 ЮВ 4 16 км ?/? +26.4 +24.4 89 +37 +37 очень
душно
1011.6 1007.9 +32.4 7
15 9.09 12 км н/о +25.8 +24.5 93 +36 +36 очень
душно
1011.9 1008.2
18 9.09 ЮВ 3 10 км 5/5 300 м
[]
+25.1 +23.8 93 +34 +34 очень
душно
1011.7 1008.0
21 9.09 13 км н/о +25.2 +24.1 94 +35 +35 очень
душно
1012.8 1009.1
00 10.09 ЮВ 3 14 км 4/4 300 м
[]
+26.0 +24.0 89 +36 +39 очень
душно
1014.5 1010.8 +24.7 0.0
03 10.09 ЮЗ 3 14 км 9/6 600 м
[]
+27.9 +22.8 74 +37 +40 очень
душно
1014.3 1010.6
06 10.09 ЮЗ 2 14 км ?/? +28.8 +22.5 69 +38 +40 очень
душно
1013.2 1009.6
09 10.09 ЮВ 1 9000 м 4/4 600 м
[]
+26.5 +23.3 83 +36 +36 очень
душно
1013.2 1009.5
12 10.09 ЮВ 1 7000 м 9/9 300 м
[]
+25.3 +23.5 90 +34 +34 очень
душно
1014.7 1011.0 +29.8
15 10.09 ЮВ 1 5000 м 5/3 300 м
[]
+24.4 +23.1 92 +32 +32 очень
душно
1014.8 1011.1
18 10.09 ЮВ 1 2500 м 8/8 300 м
[]
+24.8 +23.7 94 +34 +34 очень
душно
1014.3 1010.6 0.3
21 10.09 штиль 0 2600 м 6/5 200 м
[]
+24.8 +24.4 98 +35 +35 очень
душно
1014.4 1010.7
00 11.09 ЮВ 4 6000 м 8/8 300 м
[]
+26.3 +25.2 94 +38 +39 очень
душно
1015.0 1011.3 +24.4 0.7
03 11.09 11 км н/о +28.4 +24.3 78 +40 +41 очень
душно
1014.1 1010.5
06 11.09 Ю 4 12 км ?/? +28.4 +24.6 80 +40 +40 очень
душно
1013.0 1009.4
09 11.09 ЮВ 2 11 км 8/5 600 м
[]
+24.9 +22.5 87 +33 +33 очень
душно
1014.2 1010.5
12 11.09 СВ 3 20 км 5/5 1000 м
[]
+24.4 +20.5 79 +30 +30 очень
душно
1016.2 1012.5 +29.1 0.0
15 11.09 СВ 1 19 км 9// 300 м
[]
+23.5 +20.6 84 +29 +29 душно 1016.6 1012.9
18 11.09 С 3 20 км 9/9 300 м
[]
+22.2 +20.4 90 +29 +29 очень
душно
1015.9 1012.2 0.6
21 11.09 С 5 20 км 8/8 600 м
[]
+22.2 +19.5 85 +28 +28 душно 1016.3 1012.6
00 12.09 С 6 20 км 9/9 600 м
[]
+22.8 +19.3 81 +29 +29 очень
душно
1017.2 1013.5 +22.1 0.6
03 12.09 С 3 19 км 10/3 600 м
[]
+24.2 +18.1 69 +29 +33 душно 1016.9 1013.2
06 12.09 СВ 2 20 км 9/9 1500 м
[]
+23.2 +17.1 69 +28 +34 душно 1015.3 1011.6
09 12.09 С 4 20 км 9/5 2000 м
[]
+22.5 +17.4 73 +27 +27 душно 1015.2 1011.5
12 12.09 С 5 20 км 3/3 1500 м
[]
+21.0 +16.6 76 +25 +25 комфорт 1016.2 1012.4 +25.4 0.0
15 12.09 20 км 9/1 2000 м
[]
+21.2 +15.7 71 1015.3 1011.5
18 12.09 С 3 20 км 5/0 2000 м
[]
+21.1 +16.4 75 +25 +25 комфорт 1014.2 1010.4
21 12.09 С 2 20 км 4/0
[]
+20.2 +16.8 81 +24 +24 комфорт 1014.1 1010.3
00 13.09 С 7 20 км 3/0
[]
+23.2 +17.6 71 +29 +30 душно 1014.4 1010.7 +20.0 0.0
03 13.09 С 3 19 км 3/3 1000 м
[]
+26.6 +18.1 60 +31 +40 душно 1013.4 1009.7
06 13.09 ЮЗ 2 19 км 1/0
[]
+28.0 +17.2 52 +32 +41 душно 1011.7 1008.1
09 13.09 В 1 20 км 3/0
[]
+25.4 +17.3 61 +29 +30 душно 1012.3 1008.6
12 13.09 С 3 20 км 3/0
[]
+21.9 +16.1 70 +26 +26 душно 1013.7 1010.0 +28.5 0.0
15 13.09 С 2 20 км 3/0
[]
+20.5 +16.7 79 +24 +24 комфорт 1013.1 1009.3
18 13.09 С 3 20 км 3/0
[]
+19.2 +16.2 83 +21 +21 комфорт 1012.4 1008.6
21 13.09 С 2 20 км 3/0
[]
+18.2 +16.3 89 +19 +19 1012.4 1008.6
00 14.09 С 3 19 км 3/0
[]
+23.6 +18.0 71 +28 +32 душно 1012.6 1008.9 +18.1 0.0
03 14.09 С 2 20 км 3/0
[]
+27.3 +19.1 61 +33 +46 очень
душно
1011.4 1007.7
06 14.09 Ю 3 20 км 6/0
[]
+27.6 +19.9 63 +34 +39 очень
душно
1010.0 1006.4
09 14.09 ЮЗ 2 20 км 3/0
[]
+25.8 +18.9 66 +31 +31 очень
душно
1010.2 1006.5
12 14.09 штиль 0 20 км 8/0
[]
+23.2 +19.5 80 +30 +30 очень
душно
1011.1 1007.4 +29.1
15 14.09 ЮВ 1 19 км 5/0
[]
+22.1 +20.1 88 +28 +28 душно 1011.2 1007.5
18 14.09 штиль 0 20 км 6/0
[]
+21.6 +20.0 91 +27 +27 душно 1010.1 1006.4
21 14.09 С 3 17 км 6/1 1500 м
[]
+21.3 +20.1 93 +26 +26 душно 1010.4 1006.7
00 15.09 С 3 20 км 8/0
[]
+26.0 +21.6 77 +33 +36 очень
душно
1011.0 1007.3 +21.2
03 15.09 19 км н/о +28.8 +22.2 68 +38 +42 очень
душно
1010.1 1006.5
06 15.09 Ю 3 20 км 3/3 1000 м
[]
+29.3 +20.9 61 +37 +42 очень
душно
1008.6 1005.0
09 15.09 ЮВ 2 20 км 6/0
[]
+26.1 +18.9 65 +31 +31 очень
душно
1008.8 1005.1
12 15.09 штиль 0 20 км 3/0
[]
+23.6 +19.7 79 +29 +29 душно 1010.1 1006.4 +30.1
15 15.09 20 км н/о +22.9 +18.4 76 +29 +29 очень
душно
1010.5 1006.8
18 15.09 С 1 20 км 6/4 1000 м
[]
+21.4 +17.7 79 +26 +26 душно 1009.8 1006.1

 

Местоположение метеостанции Тхонъён (Корея): широта 34.85 долгота 128.43 высота над уровнем моря 33 м.

В архиве по умолчанию представлена погода в Тхонъёне за последнюю неделю. Архивные данные за месяц целиком и за предыдущие месяцы, начиная с января 2011 года, Вы можете получить, выбрав интересующий диапазон дат из раскрывающегося списка и нажав кнопку "Ввод!".


*Определитесь, кто Вы:
робот инопланетянин человек

Внимание! Время в таблицах - всемирное. Для получения местного времени необходимо прибавить поправку, которая равна 9 ч.

Смотрите также архив погоды в соседних городах и на ближайших метеорологических станциях:

Погода в Масане (Корея) (39 км)
Погода в Чинджу (Корея) (49 км)
Погода в Пусане (Корея) (61 км)
Погода в Йосу (Корея) (64 км)
Погода в Чинхэгу (Корея) (103 км)
Погода в Цусиме (Япония) (108 км)
Погода в Ульсане (Корея) (112 км)
Погода в Сунчхоне (Корея) (112 км)
Погода в Тэгу (Корея) (116 км)
Погода в Намвоне (Корея) (117 км)

Пояснения к столбцам:

Ветер - указаны скорость ветра в м/с - средняя за 10 мин, порывы в срок и между сроками (в фигурных скобках) и направление, откуда дует ветер: С - северный, СВ - северо-восточный, В - восточный, ЮВ - юго-восточный, Ю - южный, ЮЗ - юго-западный, З - западный, СЗ - северо-западный.
Видимость - горизонтальная дальность видимости в метрах или километрах. При видимости от 1 до 10 км при отсутствии осадков обычно наблюдается дымка, при ухудшении видимости до 1 км и менее - туман. В сухую погоду видимость может ухудшаться дымом, пылью или мглою.
Явления - указаны атмосферные явления, наблюдавшиеся в срок или в последний час перед сроком; фигурными скобками обозначены явления, наблюдавшиеся между сроками (за 1-3 часа до срока); квадратными скобками обозначены град или гололедные отложения с указанием их диаметра в мм.
Облачность - указаны через наклонную черту общая и нижняя облачность в баллах и высота нижней границы облаков в метрах; квадратными скобками обозначены формы облаков: Ci - перистые, Cs - перисто-слоистые, Cc - перисто-кучевые, Ac - высококучевые, As - высокослоистые, Sc - слоисто-кучевые, Ns - слоисто-дождевые, Cu - кучевые, Cb - кучево-дождевые. Подробнее классификацию облаков см. в Атласе облаков (PDF).
T - Температура воздуха - температура, измеренная на высоте 2 м над землей.
Td - Температура точки росы - температура, при понижении до которой содержащийся в воздухе водяной пар достигнет насыщения.
f - Относительная влажность воздуха - влажноcть воздуха, измеренная на высоте 2 м над землей.
Te - Эффективная температура - температура, которую ощущает одетый по сезону человек в тени. Характеристика душности погоды. При расчете учитывается влияние влажности воздуха и скорости ветра на теплоощущения человека.
Tes - Эффективная температура на солнце - температура, которую ощущает человек, с поправкой на солнечный нагрев. Характеристика знойности погоды. Зависит от высоты солнца над горизонтом, облачности и скорости ветра. Ночью, в пасмурную погоду, а также при ветре 12 м/с и более поправка равна нулю.
P - Атмосферное давление - приведенное к уровню моря атмосферное давление.
Po - Атмосферное давление - измеренное на уровне метеостанции атмосферное давление.
Tmin - Минимальная температура - минимум температуры воздуха на высоте 2 м над землей.
Tmax - Максимальная температура - максимум температуры воздуха на высоте 2 м над землей.
R - Количество осадков - Количество выпавших осадков за период времени, мм. При наведении курсора мыши на число - период времени, за который выпало указанное количество осадков.
R24 - Количество осадков - Количество выпавших осадков за 24 часа, мм.
S - Снежный покров - Высота снежного покрова, см. При наведении курсора мыши на число - состояние снежного покрова и степень покрытия местности в баллах.